This is the latest recevied weather packets stored in our database for station/object KK6LZB. If no packets are shown the sender has not sent any weather packets the latest 10 day(s).
| Time | Temp. | Humidity | Pressure | Rain* | Wind** | Luminosity | Snow |
|---|---|---|---|---|---|---|---|
| 1777847946 | 20.56° C | 57% | 1015.4 hPa | 0 mm | - | 303 W/m² | - |
| 1777847644 | 20.56° C | 58% | 1015.3 hPa | 0 mm | - | 288 W/m² | - |
| 1777847339 | 21.11° C | 56% | 1015.5 hPa | 0 mm | - | 340 W/m² | - |
| 1777847038 | 20° C | 59% | 1015.6 hPa | 0 mm | - | 391 W/m² | - |
| 1777846736 | 20.56° C | 58% | 1015.6 hPa | 0 mm | - | 392 W/m² | - |
| 1777846435 | 21.67° C | 56% | 1015.6 hPa | 0 mm | - | 373 W/m² | - |
| 1777846130 | 21.11° C | 58% | 1015.5 hPa | 0 mm | - | 440 W/m² | - |
| 1777845827 | 21.67° C | 58% | 1015.7 hPa | 0 mm | - | 350 W/m² | - |
| 1777845524 | 21.67° C | 56% | 1015.6 hPa | 0 mm | - | 455 W/m² | - |
| 1777845221 | 22.22° C | 57% | 1015.6 hPa | 0 mm | - | 543 W/m² | - |
| 1777844919 | 22.22° C | 55% | 1015.7 hPa | 0 mm | - | 538 W/m² | - |
| 1777844616 | 22.22° C | 55% | 1015.7 hPa | 0 mm | - | 700 W/m² | - |
| 1777844313 | 21.11° C | 60% | 1015.6 hPa | 0 mm | - | 676 W/m² | - |
| 1777844011 | 21.67° C | 59% | 1015.9 hPa | 0 mm | - | 692 W/m² | - |
| 1777843707 | 21.11° C | 58% | 1015.7 hPa | 0 mm | - | 702 W/m² | - |
| 1777843405 | 21.11° C | 58% | 1015.8 hPa | 0 mm | - | 670 W/m² | - |
| 1777843102 | 21.67° C | 59% | 1015.9 hPa | 0 mm | - | 656 W/m² | - |
| 1777842799 | 21.67° C | 60% | 1015.9 hPa | 0 mm | - | 674 W/m² | - |
| 1777842499 | 20.56° C | 60% | 1015.9 hPa | 0 mm | - | 673 W/m² | - |
| 1777842197 | 20.56° C | 60% | 1015.9 hPa | 0 mm | - | 681 W/m² | - |
| 1777841892 | 21.67° C | 59% | 1015.9 hPa | 0 mm | - | 684 W/m² | - |
| 1777841588 | 21.11° C | 60% | 1015.7 hPa | 0 mm | - | 701 W/m² | - |
| 1777841285 | 21.67° C | 60% | 1015.8 hPa | 0 mm | - | 713 W/m² | - |
| 1777840983 | 21.67° C | 60% | 1015.7 hPa | 0 mm | - | 706 W/m² | - |
| 1777840680 | 20° C | 67% | 1015.9 hPa | 0 mm | - | 704 W/m² | - |
* Rain latest hour (hover to see other rain measurements)
** Current wind speed in m/s (hover to see current wind gust speed)